Wind_Speed
6 3 3 4 5 5 5 6 6 3 4 7 6 5 7 4 3 5 6 10 13 8 5 6 7 8 10 6 6 9 9 13 25 24 25 29 29 30 29 29 28 30 33 33 33 33 30 27 23 21 19 17 18 16 17 18 20 20 19 19 18 17 16 17 16 14 14 13 11 11 13 12 12 11 11 11 11 10 9 9 9 9 9 7 7 8
3 4 5 6 7 6 6 6 5 1 0 4 5 5 5 4 2 3 6 7 6 3 4 6 6 7 9 8 7 6 7 11 23 25 25 28 29 30 30 29 29 30 32 32 33 34 32 29 26 24 21 20 18 17 17 18 19 20 19 19 18 17 18 18 16 14 14 12 10 11 12 12 11 11 11 11 10 10 9 9 8 8 8 7 7 6
1 4 7 8 6 5 4 4 2 1 2 3 4 6 4 4 4 4 6 6 2 1 5 7 7 5 6 7 5 3 3 4 15 26 29 30 30 30 30 30 30 30 31 32 34 35 34 31 29 27 24 21 17 16 17 18 19 19 19 20 19 18 18 17 16 14 13 11 9 10 10 11 11 10 10 10 10 10 9 9 9 8 8 8 8 7
2 5 7 8 5 6 3 3 4 2 1 3 4 5 4 7 6 3 5 5 2 2 6 8 5 2 3 4 4 3 3 5 5 22 32 32 32 32 32 32 33 32 32 34 35 35 35 33 32 30 27 22 19 18 18 19 20 19 19 20 19 18 17 16 15 14 12 11 11 11 10 11 11 10 10 10 10 9 9 9 9 9 8 8 8 7
5 8 5 4 6 6 4 3 5 4 2 2 5 5 6 10 5 4 8 7 4 3 6 9 5 1 3 4 6 3 3 7 1 15 26 28 31 33 32 32 34 35 35 36 37 37 36 36 35 31 28 24 22 21 18 18 19 19 18 19 19 19 16 15 15 14 14 14 14 14 13 13 13 12 11 11 11 10 9 8 8 9 8 8 8 7
8 9 3 4 4 5 4 4 4 6 3 2 5 7 9 11 7 11 13 8 4 1 5 8 4 3 3 5 7 3 2 6 3 7 18 22 25 27 28 31 34 35 36 38 38 38 38 37 36 33 31 27 23 22 18 15 16 16 17 17 18 19 17 15 15 15 15 16 16 16 15 15 15 14 13 11 10 8 8 7 7 8 7 8 8 8
5 4 4 5 5 5 5 4 5 7 5 2 5 7 9 10 12 16 14 6 3 3 5 4 3 3 2 5 7 4 4 7 4 2 10 17 21 24 27 31 34 35 36 37 39 39 39 38 37 36 33 29 25 23 18 15 14 15 16 16 17 19 18 16 16 16 16 16 17 16 14 13 12 12 11 10 8 6 6 7 7 8 8 8 8 8
5 3 4 5 5 5 5 4 5 8 6 4 5 11 12 11 14 16 11 5 2 4 3 1 1 2 2 5 6 6 6 7 6 4 5 11 17 21 25 29 33 36 36 37 38 40 40 39 38 37 35 30 25 23 20 17 15 14 15 16 16 17 18 18 17 17 16 16 17 15 13 11 10 9 8 8 8 6 6 7 7 8 8 8 8 8
4 4 5 7 5 4 5 5 7 10 6 6 5 11 12 11 14 13 7 4 4 6 4 4 2 2 1 2 4 6 8 8 8 7 5 9 14 18 21 25 30 34 36 37 39 40 40 40 39 37 34 31 27 24 22 18 15 14 15 16 17 16 17 19 19 19 19 17 17 15 13 11 8 7 6 7 7 6 7 7 8 9 9 9 9 9
4 6 7 7 5 5 7 6 9 11 7 4 8 10 7 7 7 6 3 2 4 4 4 9 6 2 1 3 5 5 7 9 10 7 6 9 13 16 18 21 24 28 33 37 38 40 40 39 38 36 33 31 29 25 22 19 16 15 15 16 18 17 16 19 20 21 20 19 19 17 15 12 9 8 8 8 8 7 8 8 9 10 10 9 9 10
7 8 6 4 7 8 8 8 11 13 8 8 12 11 11 8 5 5 3 1 2 0 4 10 9 3 1 3 6 6 5 9 10 6 7 9 11 15 16 18 17 17 25 33 36 39 39 39 37 36 34 32 30 27 25 22 18 16 16 17 18 18 17 19 21 21 20 20 20 19 16 13 11 10 10 10 10 10 9 9 9 9 10 9 9 10
5 5 4 5 11 10 6 5 8 11 10 9 8 7 8 5 6 5 5 4 2 2 4 10 10 3 1 3 6 6 3 8 12 9 9 9 12 14 12 11 9 10 16 26 34 38 39 40 38 37 36 34 32 30 27 24 20 18 17 17 18 19 18 20 22 21 21 21 21 19 17 14 13 12 12 12 12 11 11 10 10 10 10 10 10 11
4 5 4 5 10 10 6 2 1 5 7 7 6 7 7 3 2 3 2 3 1 3 4 11 11 2 4 3 4 8 6 7 12 12 12 14 13 11 10 8 7 11 15 22 31 37 39 40 40 39 38 36 34 32 29 26 22 20 19 18 19 20 20 22 23 22 22 23 22 19 17 16 15 15 14 14 13 12 11 11 10 11 10 11 12 11
3 6 5 2 5 9 9 4 2 3 5 7 8 7 6 4 3 2 2 2 3 3 1 10 10 1 4 2 3 6 9 11 15 17 17 16 9 10 10 5 10 12 15 21 29 35 38 40 41 40 39 37 35 32 30 27 24 22 20 19 20 21 21 22 23 24 24 24 23 20 18 18 18 17 16 15 14 12 12 12 11 11 10 11 11 11
1 4 4 4 4 6 8 7 7 8 6 7 7 7 6 6 5 4 5 3 2 2 3 7 7 1 2 1 7 4 8 13 16 18 17 13 10 12 9 7 11 13 13 18 25 31 36 40 41 41 40 38 36 33 31 28 26 23 20 20 21 22 22 22 23 23 24 24 23 22 20 19 19 18 17 15 14 13 12 12 12 11 10 10 10 10
2 4 7 5 3 5 8 6 6 10 6 4 3 6 5 6 6 4 4 4 4 3 3 3 3 1 2 2 6 4 8 12 15 17 17 15 15 18 15 12 15 16 13 15 21 27 33 37 39 40 40 39 36 34 32 29 27 24 21 19 21 22 22 22 22 22 23 24 24 23 22 21 20 19 18 17 16 15 13 12 12 12 11 10 10 10
0 4 7 4 2 3 8 7 5 7 6 2 3 5 4 4 6 4 1 1 4 3 1 1 1 2 1 2 5 7 9 9 10 12 15 17 18 19 18 17 19 19 16 16 19 26 31 34 37 39 40 39 38 36 33 30 27 24 20 18 19 21 21 21 21 21 22 22 23 23 23 22 21 20 20 18 17 16 14 13 13 12 11 11 11 11
2 3 6 2 1 3 5 9 6 3 7 6 4 6 2 2 3 4 3 1 3 3 0 1 1 2 0 1 2 6 10 8 8 8 10 15 18 19 20 20 19 21 20 17 18 22 27 32 36 38 40 39 38 36 33 29 26 24 21 18 18 19 20 20 21 21 21 21 22 23 23 23 23 21 20 19 17 17 16 15 14 13 13 12 12 11
2 1 7 2 3 4 1 8 6 4 4 5 6 4 3 3 1 2 3 2 2 3 0 2 2 2 2 1 0 7 8 6 7 8 9 12 16 19 23 22 21 23 25 23 21 20 22 27 33 36 38 39 38 37 34 31 28 26 24 21 19 18 19 19 20 20 21 21 22 23 23 23 23 22 21 20 19 17 17 17 16 15 14 13 12 12
1 2 4 5 3 2 3 4 3 1 4 4 4 2 1 3 4 3 3 3 4 4 2 1 2 2 1 1 2 9 9 8 10 9 9 11 14 16 18 19 19 22 24 27 27 23 21 24 30 32 34 36 37 37 36 34 31 29 27 25 22 21 20 20 20 20 21 21 22 24 24 23 23 23 22 21 20 18 17 16 16 16 15 14 14 13
1 3 1 6 4 1 1 1 5 5 2 3 4 2 1 1 1 2 1 1 4 5 3 3 1 2 1 1 3 9 7 6 9 11 10 10 11 13 15 16 18 19 21 24 27 27 24 24 27 28 28 32 35 36 36 35 33 31 30 28 25 23 22 22 21 21 21 22 23 24 25 25 24 23 23 22 21 20 18 17 16 16 16 16 15 15
1 2 1 3 3 2 2 4 4 7 6 5 3 2 3 2 3 4 1 2 2 4 4 5 3 2 2 2 2 7 5 4 8 12 12 10 11 14 16 18 18 17 18 20 23 26 28 27 26 25 25 27 29 30 30 31 31 32 31 30 28 26 24 22 21 20 19 21 23 24 24 24 24 24 24 24 23 22 20 18 17 17 17 17 17 17
1 2 2 2 1 2 6 7 2 4 6 6 3 2 3 3 4 5 3 3 2 3 2 3 2 0 1 1 3 8 9 10 11 13 13 13 15 17 15 16 18 18 17 17 18 20 24 26 25 23 24 26 27 27 26 25 27 29 31 31 30 29 27 26 25 22 21 22 23 24 24 24 24 25 25 25 24 23 22 21 19 18 18 18 18 18
0 2 3 3 4 4 6 6 4 4 6 5 2 2 4 2 2 5 5 3 4 3 2 3 1 1 1 2 7 13 14 14 14 14 14 14 18 21 17 15 18 19 18 17 16 15 16 19 21 22 25 27 27 27 25 22 21 23 25 28 29 30 30 30 29 27 25 24 23 24 24 24 24 24 25 25 25 25 24 23 22 21 20 19 19 19
3 1 2 2 3 4 5 6 7 6 4 2 2 2 3 5 7 6 3 4 3 3 4 4 2 2 2 4 9 13 13 13 13 14 15 15 17 20 18 16 18 20 20 19 18 17 17 18 19 20 24 27 28 29 26 21 18 18 20 21 25 29 30 30 31 30 28 26 23 23 24 24 24 24 25 26 26 26 25 24 24 23 23 22 21 20
1 2 3 3 4 3 1 1 2 3 3 1 1 3 4 6 8 6 4 4 3 4 4 4 3 4 6 7 7 8 9 11 12 13 15 17 18 18 18 19 21 22 22 20 20 19 18 19 18 18 20 23 25 26 25 20 17 18 19 20 22 25 28 29 30 31 29 27 25 24 23 23 24 25 26 26 26 26 25 25 25 24 24 24 23 21
3 3 3 5 5 4 6 5 5 2 1 2 1 3 4 3 4 6 5 3 4 5 3 1 6 12 11 10 8 8 8 10 11 13 15 16 18 19 19 20 21 22 22 20 19 19 19 21 21 19 17 18 19 20 21 19 16 16 19 22 23 24 25 27 29 31 30 28 28 27 25 24 24 26 26 26 26 25 25 24 24 24 24 24 24 23
4 4 5 2 2 2 5 5 6 2 2 2 2 2 4 4 5 6 3 5 8 7 1 3 11 15 14 12 11 11 10 9 11 15 16 16 17 18 18 20 21 22 22 21 20 20 20 23 26 25 20 17 17 17 17 17 15 15 17 20 22 24 26 26 27 29 29 29 30 30 28 27 25 25 25 24 25 25 25 24 23 23 23 24 24 24
5 3 6 3 4 4 3 4 5 3 2 2 3 3 4 4 5 6 3 4 8 6 5 11 15 14 14 13 11 11 13 14 15 18 20 19 18 18 19 21 22 22 23 23 21 21 21 22 25 28 24 18 17 16 14 13 13 13 14 16 18 20 22 23 24 26 26 28 31 32 31 29 27 25 24 24 25 25 25 25 24 23 23 25 26 27
4 3 6 4 4 7 9 7 6 5 4 4 6 6 6 6 6 7 6 5 6 5 9 15 13 9 10 11 11 14 19 20 21 22 22 21 20 19 20 20 21 22 23 24 23 22 22 22 23 25 23 19 16 14 12 11 10 9 10 11 12 14 17 19 20 21 23 26 29 31 31 31 29 26 25 25 26 26 26 26 25 25 25 26 28 28
4 2 5 4 4 6 9 9 7 6 6 6 8 8 8 9 8 7 6 6 8 9 11 14 11 6 6 10 14 19 23 23 23 23 22 21 21 22 21 19 20 21 23 24 24 23 22 22 22 22 21 19 16 13 11 10 8 6 6 7 9 11 13 14 15 16 18 20 21 22 23 25 25 24 23 23 25 26 27 27 26 26 27 28 29 29
4 1 3 5 5 4 6 8 9 6 6 8 8 9 7 5 5 3 3 3 7 12 13 12 9 6 7 12 16 20 22 22 21 23 24 22 21 23 24 22 21 22 22 23 23 23 22 22 21 20 20 18 16 13 12 11 10 8 6 4 5 8 10 10 12 16 17 17 16 15 15 16 17 17 18 19 21 23 25 27 28 28 29 30 30 29
2 2 2 4 3 4 6 7 6 5 7 5 5 5 4 3 5 4 3 3 10 15 12 9 9 8 11 14 15 15 18 19 20 23 26 26 24 25 26 25 24 23 23 23 22 22 22 22 21 20 19 18 16 14 12 10 9 9 8 6 5 6 6 6 7 11 14 14 13 11 10 11 12 13 15 16 17 19 20 23 28 30 32 34 33 30
3 4 2 2 2 3 8 7 5 5 3 3 5 4 4 3 6 6 5 6 9 7 6 6 9 11 13 14 14 15 16 18 21 24 28 31 30 28 28 27 26 24 23 22 22 21 21 22 22 21 20 18 16 14 13 11 11 11 9 8 7 6 5 4 3 3 5 6 8 9 9 9 8 9 11 13 15 16 17 20 24 28 31 33 33 31
4 4 2 1 2 2 5 5 4 1 3 6 7 5 4 4 7 10 8 4 2 5 10 12 11 13 15 16 20 23 22 22 24 26 28 31 32 31 30 28 26 25 24 23 22 20 19 20 21 20 19 18 16 14 13 12 13 13 13 11 10 9 8 6 4 3 3 1 1 4 6 6 6 7 9 10 12 14 17 20 23 26 29 29 29 29
3 2 2 1 1 1 3 4 2 4 6 6 7 6 4 3 9 12 8 6 5 3 11 12 9 12 18 22 25 27 28 27 25 24 27 29 30 31 32 29 26 24 24 23 22 20 18 17 17 18 17 16 14 13 12 11 11 12 14 14 13 12 10 8 8 8 8 7 5 1 2 3 3 5 7 8 9 10 13 16 19 20 22 24 25 26
5 3 2 2 2 1 1 1 2 2 4 5 5 3 3 2 1 4 4 3 7 1 10 13 11 12 19 25 28 31 32 28 18 15 22 27 28 30 30 30 27 25 24 23 21 19 17 15 15 15 14 13 12 11 10 9 8 9 10 11 12 12 11 10 9 9 8 8 7 4 2 2 2 2 3 4 6 6 7 11 14 14 15 17 20 21
5 3 3 2 2 2 1 1 3 3 1 4 6 5 4 6 6 3 3 1 6 2 11 15 14 17 21 25 28 31 29 18 7 8 19 26 29 31 30 29 27 25 24 23 21 18 16 14 13 13 11 11 10 9 7 6 6 6 6 7 7 8 8 9 9 8 7 6 6 5 4 3 2 1 1 1 1 2 3 5 8 11 13 14 16 17
7 4 4 4 2 2 4 2 0 1 3 5 7 8 12 13 7 3 5 1 4 3 13 15 17 23 26 29 32 30 20 9 5 10 22 29 31 32 31 28 26 25 23 21 19 18 16 14 13 12 11 9 9 8 5 3 3 3 3 3 3 3 3 4 6 6 7 6 5 6 5 3 2 1 2 2 2 1 1 0 2 5 7 8 9 11
6 4 4 4 2 1 3 2 1 2 3 5 5 9 16 15 6 6 4 4 4 7 14 16 20 23 24 27 28 18 6 5 12 18 27 33 33 31 30 28 26 25 22 18 16 15 14 12 11 10 9 8 8 7 5 2 0 2 4 4 5 6 6 4 3 3 3 4 3 4 5 4 2 1 1 1 1 0 0 0 1 1 2 2 3 3
4 3 2 3 2 1 2 2 1 3 4 6 7 13 17 11 5 5 4 6 4 10 17 19 22 24 21 19 17 11 8 10 22 30 33 35 33 30 29 27 25 23 20 17 14 12 11 10 8 7 6 6 6 6 5 4 3 4 4 5 6 7 8 7 6 4 2 1 1 2 3 3 2 0 2 2 2 2 2 2 1 1 3 4 4 4
1 2 2 2 1 0 2 2 1 3 3 5 11 14 11 5 1 3 3 3 8 17 23 23 23 24 22 14 13 18 22 22 27 32 33 34 33 31 29 26 24 22 19 16 14 11 9 8 5 4 3 3 4 4 5 6 6 7 7 7 8 8 8 8 8 7 6 5 5 5 5 4 3 1 3 4 4 3 3 3 2 2 2 3 4 4
2 1 1 1 2 0 2 3 2 2 3 8 12 8 5 2 4 5 5 7 13 23 30 29 25 26 26 21 16 20 26 27 28 30 30 31 31 30 27 25 23 20 17 15 12 9 7 5 3 2 2 3 4 5 6 6 6 7 7 7 8 8 8 8 9 9 9 9 9 8 8 8 7 5 5 6 6 5 3 3 3 3 3 4 5 5
1 2 1 2 2 2 2 0 2 4 6 9 6 0 1 2 4 8 9 13 18 25 30 31 29 30 32 30 27 27 31 34 36 36 33 31 30 28 26 24 21 19 17 13 10 8 5 4 3 3 4 6 6 7 6 6 6 6 7 7 8 9 9 10 10 11 11 11 11 11 12 12 11 9 8 8 7 7 5 5 4 4 5 6 7 7
3 3 2 2 2 2 3 4 4 3 5 5 5 7 7 6 6 9 12 16 19 23 26 29 31 31 31 32 33 35 37 39 39 38 35 32 28 26 25 22 19 17 15 12 10 8 5 3 3 3 4 5 6 7 7 6 7 7 7 8 9 9 10 11 11 11 12 12 13 13 13 14 13 13 11 10 9 9 8 7 6 6 7 8 8 9
3 2 2 2 0 0 1 1 2 5 7 7 9 11 12 12 9 9 13 17 18 19 23 27 30 29 29 32 35 38 40 41 39 36 32 29 26 24 22 19 17 15 13 12 10 7 5 3 3 4 5 6 6 6 6 7 8 8 8 9 9 10 10 11 11 11 11 12 13 13 14 14 14 14 13 11 10 9 9 9 9 9 10 10 10 11
4 5 2 1 2 2 0 3 4 6 9 9 8 10 12 14 12 11 13 16 17 18 22 26 29 31 32 33 32 31 31 34 35 33 30 27 24 22 19 17 16 14 12 10 8 6 4 4 5 6 7 7 7 7 8 9 9 10 10 10 11 11 11 11 11 11 11 11 12 13 14 14 14 15 14 13 12 10 9 9 10 11 12 12 12 13
4 7 3 1 2 1 2 4 3 7 9 10 9 8 8 12 14 13 14 16 18 20 23 25 29 32 33 32 30 27 25 25 26 26 26 24 22 20 18 16 15 13 11 9 7 5 4 6 8 9 9 9 9 10 11 11 11 12 13 13 13 13 13 12 12 12 11 11 11 12 13 13 13 13 14 14 14 12 11 11 12 12 12 12 13 13
4 6 2 1 2 2 1 3 4 6 8 12 12 9 5 7 13 16 16 17 19 21 24 25 25 25 26 28 30 31 30 27 24 23 22 22 21 19 17 16 14 12 10 8 6 7 8 9 9 10 10 11 11 12 12 12 12 13 13 13 14 14 13 13 13 12 12 12 12 12 12 12 13 13 13 13 13 12 10 11 13 13 12 12 12 13
3 3 0 3 3 2 2 2 2 2 3 10 14 13 9 4 9 15 18 18 19 20 21 22 22 22 21 23 25 28 28 26 24 21 20 20 19 17 16 15 14 12 11 9 9 10 10 10 10 10 10 11 12 12 12 12 12 13 13 12 12 13 13 13 13 13 13 14 13 13 12 11 12 12 12 12 12 11 10 10 12 13 12 12 11 11
3 1 1 2 1 3 2 3 6 7 5 7 11 12 11 8 5 9 13 16 19 20 20 19 20 20 19 19 21 21 21 21 22 20 19 19 18 17 17 16 14 12 10 9 9 10 11 13 13 11 10 11 12 12 12 13 13 13 12 11 10 11 11 12 13 13 14 14 13 12 11 10 11 12 12 11 12 12 11 11 12 12 12 12 11 9
Wind_Direction
175 172 200 198 198 184 171 180 193 180 165 194 188 153 160 150 116 133 143 156 152 151 169 168 166 154 153 167 190 207 244 202 179 178 178 178 180 184 187 188 188 189 191 193 194 197 198 195 195 192 184 183 185 188 192 194 191 187 185 183 182 182 179 173 167 165 168 172 171 168 170 171 170 170 169 171 173 176 179 177 177 177 178 181 185 184
141 191 221 214 203 175 169 192 198 188 143 193 172 137 132 126 101 98 119 150 162 153 133 134 155 152 146 165 180 203 246 205 182 182 183 182 184 186 189 190 189 189 190 190 191 194 196 195 196 194 188 187 191 193 196 199 196 192 192 190 188 186 183 178 173 168 168 172 171 168 169 170 172 172 168 169 167 169 175 173 172 177 181 186 187 185
147 228 233 223 198 138 160 198 155 124 102 84 127 131 123 137 112 74 102 134 193 166 130 140 154 147 131 155 181 207 278 228 188 188 187 184 185 188 189 189 189 188 186 186 187 190 194 196 196 194 191 192 196 198 200 203 200 195 195 195 194 193 188 181 177 173 169 168 165 166 170 169 169 168 163 163 163 165 168 165 169 178 184 190 191 188
208 241 234 220 177 127 174 207 112 114 131 89 136 140 146 172 148 119 144 128 51 74 141 144 134 118 105 143 191 206 292 314 206 192 191 187 187 190 190 189 189 186 183 184 186 188 191 195 196 195 193 194 198 201 202 203 201 198 196 196 198 198 193 184 179 177 173 169 165 164 169 168 165 163 163 164 165 164 162 160 168 177 181 187 190 191
236 252 227 165 154 149 181 196 128 147 224 178 179 163 158 182 165 119 144 128 70 65 133 134 110 169 153 175 205 178 258 297 309 181 189 189 191 192 190 189 188 187 184 183 184 187 189 192 195 196 194 194 198 201 202 204 203 200 197 197 200 201 198 189 184 182 181 181 174 167 170 172 170 170 173 173 170 166 161 160 166 173 177 182 188 192
258 260 206 137 158 159 163 198 170 164 193 245 216 196 174 174 134 119 138 131 98 115 173 154 140 197 184 199 210 154 218 271 330 162 179 186 192 191 187 185 185 185 184 184 185 187 188 191 194 195 195 195 200 202 203 207 208 205 202 201 204 206 202 195 191 190 191 190 183 175 175 178 179 180 179 174 169 165 160 160 166 173 177 179 183 188
261 246 159 167 186 166 165 208 203 161 146 254 228 179 163 156 133 138 150 145 130 175 196 185 147 163 202 221 204 165 201 249 290 185 170 177 187 189 185 183 181 181 181 184 186 187 188 191 193 194 195 197 202 203 202 207 212 212 210 207 206 208 207 203 199 199 198 193 188 184 182 185 187 184 178 167 159 157 163 168 174 180 181 179 180 184
245 228 158 176 185 177 186 208 199 153 136 240 204 148 153 155 144 150 155 149 141 116 121 203 72 114 205 223 183 162 197 236 263 253 182 176 183 186 184 182 181 180 181 183 185 187 190 191 194 195 196 199 202 201 200 204 212 216 214 210 205 204 208 208 206 208 207 198 192 188 186 191 191 183 178 169 157 157 177 181 183 188 185 181 182 184
226 209 194 184 186 200 206 200 176 158 173 240 174 143 158 156 147 150 147 146 146 114 126 212 208 108 216 206 133 155 193 214 231 232 200 180 180 182 181 182 185 183 183 186 187 189 191 193 196 197 197 200 201 200 201 204 211 216 216 212 205 203 207 208 205 206 208 204 199 197 195 197 195 191 193 187 173 171 186 189 190 194 190 185 185 185
235 221 211 176 178 209 215 203 168 172 213 213 116 100 91 100 117 122 110 136 131 114 174 199 188 140 215 206 154 174 204 206 215 222 201 191 184 179 176 177 184 186 185 188 190 192 194 196 198 199 199 200 201 201 202 205 209 213 216 216 210 208 209 207 203 203 204 201 199 202 206 207 208 209 208 202 194 188 192 196 195 196 192 188 189 188
258 250 243 192 200 211 209 199 177 183 188 116 102 85 66 53 34 38 14 5 96 108 206 187 181 153 198 220 189 191 198 185 190 200 197 194 187 184 176 167 171 182 187 189 192 193 196 198 199 199 200 200 200 201 202 205 209 211 216 220 216 212 211 209 206 204 204 202 200 202 207 212 214 215 213 207 199 195 198 197 196 197 195 193 194 192
288 255 239 220 221 211 186 193 189 182 163 117 112 114 86 36 12 34 351 349 88 249 228 178 171 150 238 236 209 206 184 165 178 189 189 188 195 190 166 140 141 159 182 190 192 192 194 195 196 198 200 200 200 201 203 205 208 212 216 220 219 216 214 211 209 207 206 206 205 205 208 213 217 220 218 210 201 198 199 198 197 199 198 199 200 197
304 245 235 234 230 205 164 177 191 162 157 128 126 129 104 59 25 61 322 317 200 253 234 172 159 155 246 247 221 200 182 174 181 177 180 191 193 165 117 110 149 157 173 188 190 191 192 193 195 197 199 200 200 202 204 206 207 211 216 218 219 218 214 211 210 208 207 209 210 209 210 214 219 223 222 215 207 201 199 199 203 203 200 200 203 202
327 292 277 230 232 200 165 161 152 157 166 142 142 143 118 115 116 131 230 268 256 274 223 158 153 201 258 300 317 213 178 176 178 171 183 197 176 121 109 156 186 174 177 189 191 192 193 195 197 199 199 200 202 204 205 206 207 210 215 218 218 217 215 211 210 208 209 212 213 212 213 217 220 222 221 218 214 209 204 202 208 211 204 202 208 208
142 296 258 191 219 189 163 177 169 152 161 163 155 143 138 149 146 165 196 201 223 248 82 136 155 234 247 299 322 276 158 156 163 164 177 188 159 147 164 194 198 194 187 187 191 194 195 197 197 199 201 202 204 205 205 207 208 210 214 217 216 215 214 212 210 210 210 211 214 214 215 218 221 221 220 221 220 218 214 207 210 215 209 206 210 209
159 252 248 247 246 162 157 186 152 129 150 194 140 119 151 177 151 147 188 171 155 137 86 135 184 254 215 266 334 6 116 129 139 146 155 154 145 156 170 182 195 200 188 178 189 196 198 198 197 197 201 204 205 205 206 207 208 210 213 216 213 211 213 213 211 211 211 211 214 216 215 217 221 222 221 222 222 223 222 214 212 213 211 209 207 206
115 259 275 312 331 175 169 169 137 135 154 156 130 158 192 172 132 123 154 121 99 102 105 217 273 303 276 336 6 55 87 96 111 128 141 144 141 149 164 179 192 196 184 174 188 199 200 199 199 199 200 203 205 206 207 209 210 210 212 214 210 208 211 214 213 213 213 212 212 214 215 216 219 222 224 224 223 225 227 222 214 213 212 210 208 207
154 265 297 356 31 268 167 124 89 103 129 126 171 191 181 73 94 105 111 83 64 85 304 330 317 283 341 358 4 68 73 65 74 96 124 142 148 155 167 177 188 196 193 180 182 195 199 199 200 202 203 205 206 208 209 211 213 212 212 213 207 204 207 212 214 214 214 212 211 212 213 214 218 222 226 228 226 227 230 229 222 217 215 214 212 210
121 291 300 279 185 270 43 94 71 20 76 121 158 157 115 115 160 134 135 149 110 113 209 350 336 284 150 191 74 97 104 110 110 114 128 140 149 159 167 172 179 191 196 194 189 186 188 197 201 202 205 206 207 210 212 213 215 214 214 215 211 207 207 210 213 214 215 214 211 211 213 215 218 221 225 229 230 230 232 233 230 225 221 219 219 216
91 116 286 283 235 270 8 69 123 312 7 61 88 68 60 144 160 160 154 150 133 142 162 62 328 284 186 241 115 119 138 152 142 134 132 138 147 155 163 167 170 181 188 193 195 187 176 187 199 202 203 206 208 210 213 214 215 215 215 216 216 216 216 215 216 217 217 216 213 212 214 217 219 220 223 227 230 232 234 236 237 235 232 228 226 223
19 98 229 293 320 40 12 176 166 171 146 75 66 42 12 99 124 117 85 93 122 140 150 131 221 267 295 294 135 126 131 137 134 131 121 123 132 134 139 147 158 171 179 185 193 192 183 181 189 193 196 203 208 210 213 214 215 217 219 218 218 220 221 221 221 222 221 219 216 215 215 218 220 221 223 226 228 232 234 237 240 241 241 238 234 232
19 78 171 296 358 79 249 263 184 167 158 139 132 158 167 150 117 98 45 308 98 120 153 151 176 259 345 330 134 122 113 97 110 118 110 98 104 115 126 139 148 157 167 179 188 193 194 190 185 184 187 196 203 206 209 212 213 216 219 221 221 222 224 225 225 226 225 222 219 218 218 220 222 222 223 225 227 230 232 235 238 240 242 241 238 238
198 89 68 279 251 212 263 283 256 154 132 119 116 141 147 135 120 125 173 223 85 80 96 100 114 258 351 332 120 110 109 104 100 103 102 99 104 112 123 140 149 149 152 165 177 185 192 195 192 190 189 190 195 199 201 205 210 214 218 222 224 225 227 228 228 228 229 228 225 223 221 221 223 224 225 226 227 230 231 233 235 237 239 240 239 240
7 74 38 315 299 304 296 308 343 28 80 84 34 74 124 132 127 140 162 155 121 132 117 71 71 203 182 142 126 121 119 115 113 112 109 108 113 119 126 136 144 145 139 144 158 168 176 183 187 191 193 193 195 197 197 200 206 208 211 218 222 225 227 229 230 230 231 232 230 228 226 224 224 226 227 229 230 231 233 234 236 237 238 239 239 239
347 63 61 30 15 360 342 349 352 353 32 60 316 343 95 109 107 113 111 79 106 178 151 124 162 183 158 154 135 132 130 124 128 130 124 120 119 121 125 123 124 131 137 142 149 155 160 165 173 186 194 197 200 200 199 201 205 201 202 210 216 221 225 227 231 232 232 234 234 232 230 228 228 229 230 232 232 233 234 235 237 238 239 240 241 240
16 83 85 102 122 140 178 321 317 307 325 330 326 12 56 113 123 124 111 84 125 178 137 128 158 132 138 157 146 142 137 129 137 137 127 125 125 123 122 120 119 126 134 142 147 152 155 157 165 180 193 200 205 208 206 206 207 202 200 204 209 216 221 225 230 232 233 235 237 237 234 230 229 230 233 234 234 235 236 236 237 238 239 240 240 240
112 63 66 131 141 164 185 226 260 241 34 338 18 55 62 102 110 104 112 133 159 148 96 102 150 140 150 165 154 147 143 135 137 134 126 125 124 121 119 118 120 124 128 133 136 138 137 134 140 154 172 190 201 208 211 211 207 203 201 203 204 210 218 223 227 230 233 235 237 240 239 233 229 231 233 235 236 237 238 238 238 238 238 239 239 238
114 31 8 98 110 179 193 249 292 339 80 1 336 98 106 109 106 104 133 178 149 130 109 192 155 147 159 170 159 151 147 139 137 134 131 127 120 117 117 114 114 116 121 125 125 124 120 117 121 127 142 173 190 197 206 209 206 203 203 205 208 212 219 222 224 228 231 233 235 239 240 236 234 235 237 238 238 239 238 239 239 238 238 238 238 238
118 36 354 354 4 7 11 328 326 17 80 32 17 52 77 89 119 120 124 159 145 145 176 170 163 160 161 163 157 151 147 141 139 137 132 126 119 114 111 111 110 110 114 118 116 115 114 113 116 120 129 153 173 179 185 188 192 200 205 208 211 215 220 222 224 229 231 230 233 237 238 237 236 236 238 239 241 241 240 239 238 239 240 240 238 238
103 29 353 356 2 360 2 353 359 38 51 32 27 36 55 70 96 103 92 89 87 95 137 146 151 154 152 154 147 144 144 139 135 134 129 124 122 117 111 109 109 108 110 112 111 110 111 111 112 117 126 139 150 157 160 161 171 189 203 208 210 217 224 224 226 232 232 231 235 237 237 235 234 234 237 240 241 242 242 241 238 238 243 245 243 241
65 10 330 21 37 344 347 353 357 31 57 46 27 26 51 71 73 81 97 95 79 87 113 124 126 127 145 147 138 137 140 137 135 134 129 128 129 125 119 115 113 111 110 111 111 111 112 112 112 113 118 123 127 129 130 128 131 147 180 203 205 207 215 220 223 227 228 227 229 232 232 231 231 233 237 241 243 243 243 243 240 239 243 244 244 246
56 76 323 45 50 320 328 346 340 3 48 41 18 4 16 58 83 90 102 114 119 121 120 120 130 156 165 148 138 138 142 142 143 139 135 138 139 131 126 122 121 119 115 113 113 111 111 112 112 112 112 112 112 111 109 109 113 120 133 155 165 164 173 189 201 205 206 207 206 209 216 221 224 229 235 240 244 245 243 242 241 242 243 239 236 239
42 84 45 51 57 293 309 332 338 14 36 11 335 323 340 54 103 106 68 104 139 139 140 153 162 159 155 149 143 145 148 148 148 145 143 144 141 132 128 126 125 123 119 116 115 112 111 109 109 111 111 108 106 104 103 109 114 113 114 109 97 118 150 176 190 191 194 195 192 190 195 206 216 225 231 238 245 247 247 246 244 244 245 241 235 232
23 79 99 80 100 277 305 328 11 49 52 268 263 262 252 196 132 116 107 132 146 136 116 133 142 140 150 154 148 146 149 150 151 151 149 147 142 134 130 129 128 125 120 118 117 115 113 112 110 110 109 108 106 104 102 106 108 105 102 101 96 102 132 167 193 207 209 201 188 178 175 183 200 218 228 234 241 244 246 246 243 239 239 239 238 236
38 60 114 95 76 270 311 5 54 101 233 255 282 299 267 210 127 103 83 75 104 107 103 111 128 141 145 144 141 142 146 149 150 150 150 148 145 140 136 133 132 128 121 119 120 120 117 115 113 110 107 106 104 102 101 101 105 106 103 100 98 99 104 114 110 80 47 36 184 192 193 194 201 215 224 228 232 236 238 239 240 239 239 240 240 242
91 76 118 93 35 326 355 37 121 227 259 294 316 332 349 46 97 100 75 6 339 119 126 121 125 135 134 133 136 140 143 142 141 147 152 152 149 146 142 140 138 133 125 121 122 121 119 116 114 111 109 109 108 106 103 100 103 106 102 97 94 92 94 101 99 89 78 71 71 69 264 272 259 240 236 237 236 233 233 234 236 241 247 247 243 243
108 108 76 46 56 74 2 319 263 282 313 320 321 335 12 8 148 132 107 346 326 18 133 128 119 124 127 129 132 135 136 134 128 140 154 152 150 148 144 141 141 137 131 128 126 123 120 115 113 113 113 115 115 109 102 99 102 105 101 97 92 88 91 98 97 92 89 89 89 84 45 359 347 287 257 254 252 248 244 243 241 245 254 254 247 243
73 104 113 98 92 94 85 323 344 16 291 265 271 283 328 321 284 275 90 27 328 44 134 135 130 133 134 132 135 136 134 130 121 151 158 153 148 144 140 139 140 139 137 136 132 128 126 121 118 121 122 119 113 108 100 89 85 91 95 94 92 89 90 93 92 87 83 85 92 95 93 81 66 70 124 176 239 244 250 257 256 256 259 260 254 248
36 48 95 92 56 68 102 109 293 199 228 261 268 293 331 340 328 32 79 325 289 153 147 144 140 145 145 143 145 143 138 141 159 163 161 155 148 144 142 139 138 138 138 138 136 132 131 128 128 132 132 127 121 118 115 86 45 35 32 26 28 39 52 74 86 86 78 75 84 97 101 94 81 113 151 147 125 131 166 201 270 265 263 265 264 258
16 10 48 70 59 94 112 125 212 217 258 280 276 305 332 344 18 86 106 240 239 164 168 161 146 147 148 147 150 150 142 165 161 159 160 154 148 146 145 142 141 141 140 140 140 137 134 133 136 139 139 138 136 139 148 159 319 328 330 330 326 325 328 336 4 53 73 82 94 107 106 98 92 147 196 186 157 120 325 77 63 14 349 352 343 302
8 10 53 98 118 98 109 144 245 257 261 276 297 320 335 351 49 106 192 226 160 142 168 165 147 144 144 138 135 112 79 129 148 151 155 153 149 148 148 145 144 144 143 144 147 145 143 143 148 152 154 157 157 164 183 208 239 269 284 295 302 308 311 312 316 323 319 277 214 192 166 135 116 113 274 275 291 299 290 287 314 2 360 360 9 16
15 10 21 86 111 28 114 122 316 279 259 307 323 331 349 13 188 202 201 178 136 143 156 157 149 147 145 133 117 110 112 126 141 146 151 154 153 151 150 149 148 146 146 148 150 153 154 152 155 163 173 190 200 215 231 242 253 263 268 276 282 288 292 295 296 295 292 288 276 256 239 219 200 222 274 278 282 276 263 270 291 313 323 324 332 345
158 119 344 245 200 93 58 56 50 217 274 334 338 338 10 50 208 191 127 123 145 152 156 158 159 160 158 155 148 140 138 143 150 155 158 158 156 152 151 151 151 150 152 153 155 161 163 158 162 202 256 259 253 254 256 257 260 261 261 266 272 275 278 279 280 280 281 284 284 281 274 263 252 254 269 273 272 269 261 260 267 276 287 296 303 310
170 137 182 241 205 112 86 124 199 227 292 326 338 227 108 77 167 163 135 131 148 158 162 165 169 173 170 163 154 151 153 155 159 163 165 161 156 153 152 154 155 155 157 161 166 173 180 187 205 233 260 269 273 275 275 275 273 266 262 262 264 267 270 269 270 272 273 276 279 281 283 282 277 275 275 274 272 271 266 258 259 269 278 285 292 298
253 217 167 169 178 156 180 225 244 300 342 11 93 114 106 100 131 161 151 137 143 159 166 166 168 173 176 172 163 158 157 157 158 160 161 158 154 152 152 155 157 159 162 167 170 173 183 207 237 251 254 260 271 281 290 295 292 285 281 276 271 270 269 268 268 269 270 273 274 275 278 282 284 285 284 279 275 275 274 270 269 274 281 287 293 296
278 293 136 137 299 227 177 275 327 17 30 59 96 105 106 109 121 151 152 141 142 156 162 161 163 164 164 163 161 158 158 159 158 158 157 155 155 156 157 159 162 167 172 174 173 178 193 221 254 260 257 260 270 281 289 291 291 291 289 287 286 285 281 279 277 275 273 273 272 271 272 274 279 285 288 285 279 277 280 281 281 283 286 291 294 298
347 16 51 78 41 77 124 323 360 36 33 44 84 104 106 109 117 135 143 138 140 151 157 157 158 156 155 153 151 151 154 157 157 157 158 159 161 163 167 170 173 179 185 189 191 199 219 251 262 258 259 267 276 283 284 281 281 284 283 283 287 290 291 294 294 289 284 279 274 271 269 269 273 279 283 284 284 282 284 286 287 289 291 292 292 294
349 9 20 49 45 93 243 301 30 75 58 49 72 94 101 112 121 125 129 134 138 144 150 154 155 156 157 157 157 159 162 165 164 162 162 165 169 173 177 182 187 191 199 206 216 233 259 272 268 263 265 270 273 276 278 280 282 281 280 281 281 283 288 294 297 299 297 290 283 277 272 268 268 271 276 281 285 288 293 296 296 296 298 300 301 301
339 347 352 94 30 17 316 344 46 86 62 45 52 59 70 124 138 135 135 141 144 143 146 152 157 161 164 166 170 174 175 177 179 177 171 172 177 180 183 189 194 200 210 224 248 271 281 282 279 279 280 279 276 274 275 280 286 286 285 284 282 282 285 289 293 300 304 302 298 293 282 270 263 265 273 279 282 287 298 305 303 302 305 309 313 313
3 328 293 73 30 292 256 333 19 120 69 31 37 43 41 80 148 150 149 153 155 155 157 159 162 168 172 175 177 179 178 178 181 184 182 183 187 192 198 204 208 214 226 242 260 274 284 290 294 296 290 280 276 277 280 287 295 296 294 290 287 287 288 290 295 301 306 308 309 307 298 282 265 260 267 275 277 277 283 293 299 301 307 315 322 321
50 25 84 92 150 213 194 95 89 110 102 46 37 44 48 55 102 145 157 163 166 167 169 171 172 175 182 187 189 191 191 189 189 192 194 196 201 208 212 216 221 228 236 249 263 278 291 298 299 297 288 276 272 277 287 297 303 302 296 288 287 288 290 292 297 302 306 311 312 312 310 299 277 265 265 271 275 276 277 282 289 296 307 317 321 316
Height
1491 1496 1498 1498 1498 1498 1499 1499 1499 1499 1502 1505 1508 1513 1517 1520 1523 1520 1519 1518 1518 1526 1531 1531 1533 1536 1535 1535 1533 1536 1537 1536 1536 1537 1538 1540 1541 1543 1545 1547 1549 1551 1553 1555 1556 1558 1560 1562 1563 1564 1566 1567 1569 1570 1572 1573 1574 1576 1577 1578 1579 1580 1582 1582 1583 1584 1585 1586 1587 1588 1589 1590 1591 1592 1593 1594 1595 1596 1597 1598 1599 1600 1601 1602 1602 1603
1491 1497 1497 1494 1495 1496 1496 1496 1497 1499 1501 1502 1507 1514 1518 1521 1523 1519 1518 1520 1518 1524 1532 1531 1534 1537 1536 1536 1534 1536 1539 1536 1534 1535 1537 1538 1540 1542 1543 1546 1548 1550 1553 1554 1556 1558 1560 1562 1563 1564 1566 1567 1568 1570 1571 1573 1574 1576 1577 1578 1579 1580 1582 1583 1584 1585 1586 1587 1588 1589 1590 1591 1592 1593 1594 1595 1596 1597 1598 1598 1599 1599 1600 1601 1602 1603
1495 1496 1493 1492 1493 1495 1496 1496 1497 1500 1501 1504 1507 1514 1520 1521 1522 1522 1520 1520 1519 1524 1532 1533 1534 1538 1537 1537 1537 1538 1538 1535 1534 1534 1534 1536 1538 1540 1542 1544 1547 1549 1551 1553 1555 1557 1560 1561 1563 1564 1565 1567 1568 1569 1571 1572 1574 1575 1577 1578 1579 1580 1582 1583 1584 1586 1587 1588 1589 1590 1591 1592 1593 1593 1595 1595 1596 1597 1598 1598 1599 1599 1600 1601 1602 1603
1499 1493 1489 1490 1492 1495 1497 1497 1498 1500 1501 1505 1508 1513 1520 1519 1519 1525 1524 1521 1520 1521 1528 1531 1534 1538 1537 1538 1539 1538 1538 1535 1534 1533 1533 1535 1536 1537 1540 1542 1544 1547 1550 1552 1554 1557 1559 1561 1562 1564 1565 1566 1568 1569 1570 1572 1574 1575 1576 1578 1579 1580 1582 1583 1585 1586 1588 1589 1590 1591 1592 1593 1594 1594 1595 1595 1596 1597 1597 1598 1599 1600 1601 1602 1603 1603
1495 1488 1486 1489 1491 1494 1498 1498 1500 1503 1504 1505 1506 1508 1514 1514 1512 1517 1520 1520 1522 1523 1523 1528 1538 1541 1538 1540 1539 1536 1537 1537 1534 1533 1533 1535 1535 1537 1539 1540 1542 1545 1547 1550 1553 1556 1558 1560 1562 1563 1565 1566 1567 1569 1570 1571 1573 1575 1576 1578 1579 1580 1582 1583 1585 1586 1588 1590 1591 1591 1592 1593 1594 1594 1595 1595 1596 1597 1597 1598 1599 1600 1601 1602 1602 1603
1491 1485 1485 1489 1492 1494 1497 1499 1500 1501 1505 1506 1503 1501 1505 1509 1510 1514 1517 1520 1529 1535 1525 1524 1542 1547 1538 1538 1538 1535 1537 1537 1534 1532 1533 1534 1535 1537 1538 1539 1542 1544 1546 1548 1551 1554 1557 1559 1561 1563 1564 1565 1567 1568 1570 1571 1573 1575 1576 1578 1579 1580 1582 1583 1585 1586 1588 1589 1590 1591 1591 1592 1593 1594 1595 1596 1596 1597 1597 1598 1599 1600 1601 1602 1602 1603
1487 1483 1484 1489 1491 1494 1497 1499 1498 1498 1505 1507 1499 1495 1500 1504 1509 1514 1516 1520 1532 1536 1525 1520 1536 1548 1543 1538 1535 1534 1537 1536 1533 1533 1532 1533 1535 1536 1537 1539 1541 1543 1545 1548 1551 1553 1556 1558 1560 1562 1564 1565 1566 1568 1570 1571 1573 1574 1576 1578 1579 1580 1581 1583 1585 1586 1588 1589 1590 1591 1592 1593 1594 1595 1596 1596 1597 1598 1598 1599 1600 1600 1601 1602 1602 1603
1484 1483 1486 1488 1490 1493 1497 1498 1495 1495 1504 1503 1492 1491 1499 1503 1508 1512 1512 1518 1525 1526 1526 1523 1528 1541 1545 1538 1532 1534 1538 1537 1534 1533 1532 1532 1534 1535 1537 1538 1540 1542 1544 1547 1550 1552 1555 1557 1559 1561 1563 1564 1566 1568 1570 1571 1573 1574 1576 1578 1579 1581 1582 1583 1584 1586 1587 1589 1590 1591 1592 1593 1594 1596 1597 1597 1598 1598 1599 1599 1600 1601 1601 1602 1602 1603
1482 1484 1486 1487 1491 1493 1493 1492 1491 1493 1497 1494 1487 1490 1495 1498 1504 1507 1510 1517 1518 1523 1537 1533 1527 1539 1546 1536 1531 1535 1538 1538 1534 1532 1531 1531 1533 1535 1537 1538 1540 1542 1544 1546 1548 1551 1553 1556 1558 1560 1562 1564 1566 1568 1569 1571 1572 1574 1576 1578 1579 1581 1582 1583 1585 1586 1587 1588 1590 1591 1592 1593 1595 1596 1597 1598 1598 1598 1599 1600 1600 1601 1602 1602 1603 1603
1481 1482 1481 1483 1488 1489 1486 1485 1486 1490 1491 1487 1487 1493 1497 1502 1507 1508 1514 1518 1516 1525 1538 1534 1528 1539 1546 1537 1534 1537 1537 1534 1532 1530 1530 1530 1532 1535 1536 1538 1541 1543 1544 1545 1547 1549 1552 1554 1557 1559 1561 1564 1565 1567 1569 1571 1572 1574 1576 1577 1579 1580 1582 1583 1585 1585 1587 1588 1589 1591 1592 1593 1595 1596 1596 1597 1598 1598 1599 1600 1600 1601 1602 1602 1603 1603
1478 1477 1478 1479 1481 1479 1479 1481 1482 1485 1486 1484 1490 1499 1506 1512 1514 1516 1521 1520 1524 1530 1531 1527 1524 1532 1541 1536 1529 1529 1526 1525 1528 1529 1529 1529 1531 1534 1537 1539 1541 1543 1544 1545 1547 1549 1551 1554 1556 1559 1561 1563 1565 1567 1569 1570 1572 1574 1575 1577 1578 1580 1581 1583 1584 1585 1586 1588 1589 1590 1592 1593 1595 1595 1596 1597 1598 1598 1599 1600 1600 1601 1602 1602 1603 1604
1478 1478 1477 1473 1472 1473 1475 1480 1480 1482 1482 1484 1493 1500 1512 1524 1524 1529 1535 1530 1532 1533 1523 1519 1520 1528 1539 1533 1521 1519 1517 1517 1522 1525 1527 1528 1530 1534 1538 1540 1539 1541 1543 1545 1547 1549 1551 1553 1555 1558 1560 1562 1564 1566 1568 1570 1572 1573 1575 1576 1577 1579 1581 1582 1583 1585 1586 1587 1589 1590 1591 1593 1594 1595 1596 1597 1598 1598 1599 1600 1600 1601 1602 1602 1603 1603
1478 1476 1473 1470 1469 1469 1475 1482 1483 1484 1483 1487 1496 1502 1520 1540 1542 1548 1556 1545 1535 1527 1516 1514 1519 1529 1534 1523 1516 1515 1514 1515 1518 1520 1524 1526 1530 1535 1538 1540 1539 1539 1541 1543 1545 1548 1550 1552 1553 1556 1558 1561 1563 1565 1567 1569 1571 1572 1574 1575 1576 1578 1580 1581 1582 1584 1586 1587 1588 1590 1591 1592 1594 1595 1596 1597 1598 1598 1599 1600 1600 1601 1602 1602 1603 1603
1482 1476 1471 1471 1470 1465 1471 1481 1485 1489 1488 1489 1496 1503 1521 1542 1552 1560 1561 1549 1537 1525 1514 1511 1519 1531 1528 1518 1515 1513 1510 1513 1515 1519 1524 1526 1530 1535 1537 1540 1540 1539 1539 1541 1543 1545 1547 1549 1551 1553 1556 1559 1561 1563 1566 1567 1569 1571 1572 1574 1575 1577 1579 1581 1582 1584 1585 1587 1588 1590 1591 1592 1594 1595 1596 1596 1597 1598 1599 1600 1600 1601 1602 1602 1603 1604
1492 1488 1474 1470 1470 1464 1467 1472 1475 1481 1486 1487 1487 1494 1508 1521 1535 1547 1545 1540 1538 1530 1521 1517 1525 1534 1529 1519 1515 1510 1509 1512 1515 1519 1524 1528 1532 1535 1537 1539 1539 1539 1540 1541 1543 1544 1546 1547 1549 1552 1555 1557 1560 1562 1564 1566 1568 1569 1571 1572 1574 1576 1578 1580 1582 1583 1585 1587 1588 1590 1591 1592 1593 1594 1595 1596 1597 1597 1599 1599 1600 1601 1602 1603 1604 1604
1493 1489 1471 1464 1464 1461 1465 1465 1464 1472 1485 1487 1482 1491 1503 1500 1505 1519 1522 1520 1524 1531 1532 1529 1531 1532 1524 1517 1513 1510 1511 1514 1516 1520 1524 1529 1532 1534 1537 1538 1538 1539 1540 1541 1542 1544 1545 1547 1549 1552 1554 1556 1558 1560 1562 1564 1566 1567 1569 1571 1573 1575 1577 1579 1581 1583 1584 1586 1588 1589 1590 1591 1593 1594 1595 1595 1596 1597 1598 1599 1600 1601 1602 1603 1604 1604
1493 1485 1467 1463 1462 1460 1462 1462 1461 1468 1480 1487 1488 1492 1493 1486 1488 1504 1514 1511 1512 1531 1540 1535 1534 1531 1522 1520 1516 1513 1516 1518 1519 1522 1525 1529 1531 1533 1536 1536 1537 1538 1540 1541 1541 1542 1545 1546 1549 1552 1553 1556 1557 1559 1561 1562 1564 1566 1568 1570 1572 1574 1576 1578 1580 1582 1583 1585 1586 1588 1589 1590 1592 1592 1594 1594 1595 1596 1597 1598 1599 1600 1601 1602 1604 1604
1490 1484 1469 1465 1467 1462 1459 1459 1461 1462 1469 1482 1490 1487 1482 1486 1489 1496 1515 1522 1524 1540 1545 1536 1537 1536 1530 1529 1523 1519 1524 1525 1524 1524 1525 1529 1529 1531 1533 1534 1536 1536 1539 1541 1541 1542 1544 1545 1548 1550 1552 1554 1556 1558 1560 1561 1564 1566 1568 1570 1572 1574 1575 1577 1579 1580 1582 1583 1584 1586 1587 1589 1590 1591 1593 1594 1595 1596 1597 1598 1599 1599 1600 1602 1603 1604
1484 1486 1475 1466 1468 1465 1458 1461 1468 1466 1464 1471 1478 1477 1481 1495 1498 1496 1511 1524 1531 1548 1551 1540 1539 1536 1532 1532 1527 1526 1529 1527 1526 1525 1525 1528 1529 1530 1531 1532 1534 1534 1536 1539 1540 1541 1542 1544 1547 1548 1550 1552 1554 1557 1558 1560 1563 1565 1568 1570 1571 1573 1574 1575 1577 1578 1580 1582 1583 1585 1586 1587 1588 1590 1591 1592 1594 1595 1595 1596 1598 1599 1600 1601 1602 1603
1481 1487 1482 1467 1465 1465 1461 1466 1475 1476 1470 1468 1472 1476 1479 1487 1493 1494 1501 1509 1522 1544 1551 1546 1544 1536 1530 1530 1528 1527 1527 1524 1524 1525 1524 1526 1528 1529 1530 1530 1531 1531 1533 1536 1537 1539 1541 1542 1545 1547 1549 1551 1553 1555 1556 1559 1562 1564 1567 1569 1571 1573 1574 1575 1577 1577 1579 1581 1582 1583 1584 1585 1587 1588 1589 1591 1592 1593 1594 1596 1597 1598 1599 1600 1601 1602
1479 1485 1485 1473 1465 1468 1471 1471 1473 1475 1475 1474 1477 1482 1483 1484 1486 1491 1498 1501 1512 1533 1546 1549 1549 1538 1528 1527 1526 1525 1525 1524 1524 1525 1526 1527 1528 1530 1531 1531 1531 1531 1531 1534 1535 1537 1539 1540 1543 1545 1547 1549 1551 1553 1555 1558 1561 1563 1566 1568 1570 1572 1573 1575 1576 1577 1578 1579 1580 1581 1582 1583 1585 1586 1587 1589 1590 1591 1593 1594 1596 1597 1598 1599 1600 1601
1481 1484 1486 1480 1474 1474 1475 1470 1467 1469 1470 1473 1477 1480 1483 1484 1487 1496 1508 1507 1507 1520 1532 1538 1541 1538 1530 1525 1524 1524 1525 1525 1525 1526 1528 1530 1531 1533 1534 1533 1533 1532 1531 1532 1533 1535 1537 1539 1542 1544 1545 1548 1550 1552 1554 1556 1559 1562 1565 1568 1570 1571 1572 1574 1575 1575 1576 1577 1578 1580 1581 1583 1583 1584 1586 1587 1588 1589 1591 1593 1594 1596 1597 1598 1599 1600
1481 1484 1486 1483 1479 1478 1475 1469 1468 1467 1466 1469 1474 1478 1480 1482 1485 1494 1506 1510 1510 1515 1520 1524 1532 1536 1530 1524 1523 1524 1525 1526 1527 1528 1530 1533 1533 1534 1536 1535 1534 1533 1532 1532 1533 1534 1536 1538 1541 1542 1544 1546 1548 1550 1552 1554 1557 1559 1562 1565 1568 1570 1571 1572 1573 1573 1574 1575 1577 1579 1580 1582 1583 1584 1585 1585 1586 1587 1589 1591 1593 1595 1596 1597 1599 1599
1482 1488 1489 1485 1481 1476 1471 1467 1467 1466 1467 1472 1475 1476 1479 1481 1482 1485 1491 1499 1509 1517 1518 1523 1535 1537 1528 1524 1524 1525 1525 1527 1528 1529 1532 1535 1533 1533 1536 1537 1534 1533 1532 1532 1533 1535 1536 1538 1539 1541 1543 1545 1547 1549 1551 1553 1556 1557 1559 1562 1565 1567 1569 1569 1570 1571 1573 1574 1576 1577 1579 1581 1582 1584 1584 1585 1585 1586 1588 1589 1591 1593 1595 1596 1597 1598
1485 1492 1493 1492 1492 1489 1483 1480 1477 1472 1472 1477 1478 1477 1478 1480 1482 1485 1489 1495 1507 1516 1515 1520 1535 1536 1527 1524 1524 1524 1526 1527 1529 1530 1532 1535 1535 1533 1535 1535 1534 1534 1534 1533 1534 1535 1537 1538 1540 1540 1542 1544 1545 1548 1550 1553 1555 1557 1559 1563 1565 1566 1566 1567 1567 1568 1570 1572 1574 1576 1577 1579 1581 1582 1583 1584 1584 1585 1586 1588 1589 1591 1593 1594 1596 1597
1486 1492 1494 1495 1500 1504 1503 1499 1492 1485 1481 1481 1480 1478 1478 1481 1481 1485 1492 1497 1506 1514 1513 1518 1531 1533 1527 1525 1526 1525 1526 1527 1529 1531 1532 1533 1535 1534 1534 1534 1534 1534 1535 1534 1534 1535 1536 1537 1540 1541 1542 1544 1545 1547 1550 1552 1553 1556 1560 1562 1563 1564 1565 1565 1565 1566 1568 1571 1572 1574 1576 1576 1577 1578 1580 1581 1583 1584 1585 1586 1588 1589 1591 1592 1594 1595
1486 1491 1494 1496 1497 1500 1501 1495 1489 1486 1486 1484 1482 1480 1480 1482 1482 1484 1491 1495 1500 1511 1517 1519 1522 1527 1528 1528 1527 1527 1527 1527 1529 1530 1531 1533 1534 1534 1534 1534 1534 1534 1534 1534 1534 1535 1536 1537 1540 1542 1543 1545 1545 1547 1549 1550 1552 1555 1558 1559 1560 1562 1563 1563 1564 1565 1567 1569 1571 1573 1574 1575 1575 1575 1577 1579 1581 1583 1584 1585 1586 1587 1589 1591 1592 1593
1487 1492 1495 1495 1494 1495 1495 1491 1486 1485 1486 1485 1483 1481 1480 1482 1483 1485 1489 1491 1495 1507 1519 1520 1517 1521 1526 1526 1525 1527 1527 1527 1528 1529 1531 1533 1533 1534 1534 1534 1534 1535 1534 1534 1535 1536 1537 1539 1541 1543 1545 1546 1545 1546 1548 1549 1552 1554 1555 1556 1557 1559 1560 1561 1562 1563 1564 1567 1568 1571 1573 1573 1574 1574 1576 1578 1579 1581 1582 1583 1584 1586 1587 1589 1590 1591
1490 1496 1496 1494 1493 1492 1491 1490 1487 1485 1485 1486 1485 1482 1481 1482 1483 1484 1489 1493 1492 1496 1506 1513 1516 1518 1520 1521 1523 1525 1525 1526 1528 1530 1531 1532 1533 1534 1534 1534 1535 1535 1535 1535 1536 1537 1538 1540 1541 1543 1545 1546 1546 1547 1548 1549 1550 1551 1552 1553 1555 1556 1557 1558 1560 1561 1562 1564 1566 1568 1570 1572 1572 1573 1575 1576 1577 1579 1581 1582 1583 1584 1586 1587 1588 1590
1494 1499 1499 1497 1495 1491 1489 1489 1488 1485 1485 1486 1486 1484 1483 1485 1485 1486 1492 1496 1494 1494 1499 1507 1515 1518 1517 1518 1521 1523 1525 1527 1529 1531 1532 1533 1534 1535 1535 1536 1536 1537 1537 1536 1537 1538 1539 1540 1542 1543 1545 1546 1547 1547 1548 1549 1549 1550 1551 1552 1553 1554 1555 1557 1558 1559 1560 1561 1564 1566 1568 1569 1570 1571 1573 1574 1575 1577 1579 1581 1582 1582 1584 1586 1587 1588
1495 1502 1503 1499 1497 1496 1492 1489 1487 1488 1487 1487 1487 1487 1486 1487 1489 1491 1494 1497 1499 1505 1507 1510 1518 1523 1519 1518 1520 1523 1526 1528 1530 1532 1533 1535 1536 1536 1536 1538 1538 1539 1539 1538 1539 1540 1541 1541 1543 1544 1545 1547 1547 1548 1548 1549 1549 1550 1551 1552 1553 1554 1555 1556 1557 1558 1559 1560 1563 1566 1566 1566 1566 1568 1570 1572 1573 1575 1577 1579 1580 1580 1583 1585 1587 1588
1496 1504 1505 1502 1503 1502 1496 1493 1492 1488 1487 1488 1490 1490 1489 1490 1492 1494 1495 1496 1499 1508 1513 1516 1521 1522 1517 1517 1521 1524 1526 1529 1530 1531 1532 1536 1539 1538 1537 1539 1540 1540 1541 1541 1541 1543 1543 1543 1544 1545 1546 1547 1548 1549 1549 1550 1550 1551 1552 1553 1555 1556 1556 1556 1557 1558 1559 1561 1562 1564 1564 1563 1564 1565 1568 1569 1570 1572 1575 1577 1577 1578 1581 1584 1586 1586
1500 1503 1506 1509 1510 1506 1500 1499 1495 1491 1495 1500 1497 1493 1492 1492 1492 1493 1495 1495 1496 1500 1507 1511 1512 1511 1512 1515 1519 1523 1526 1529 1531 1532 1532 1535 1539 1539 1539 1540 1541 1542 1543 1543 1544 1545 1546 1546 1546 1547 1548 1548 1549 1550 1551 1552 1552 1553 1554 1555 1556 1558 1558 1558 1559 1559 1559 1559 1560 1562 1562 1562 1563 1564 1566 1567 1568 1570 1573 1575 1575 1577 1581 1583 1583 1583
1503 1504 1510 1513 1512 1510 1506 1500 1498 1504 1512 1509 1498 1493 1493 1490 1489 1492 1496 1498 1497 1496 1496 1498 1501 1506 1510 1514 1517 1522 1526 1528 1531 1533 1533 1534 1537 1539 1540 1541 1543 1544 1544 1545 1546 1547 1548 1548 1549 1550 1550 1550 1551 1552 1553 1554 1554 1555 1556 1557 1558 1559 1560 1560 1560 1559 1558 1559 1560 1561 1561 1561 1562 1563 1565 1566 1566 1568 1570 1573 1574 1577 1580 1581 1580 1578
1504 1505 1510 1513 1513 1513 1509 1503 1509 1518 1515 1502 1494 1493 1492 1489 1488 1492 1497 1499 1499 1497 1496 1498 1503 1506 1510 1514 1518 1521 1526 1529 1532 1535 1536 1536 1536 1537 1540 1542 1544 1545 1546 1547 1548 1549 1550 1551 1551 1551 1552 1552 1553 1554 1555 1556 1556 1557 1558 1558 1559 1560 1560 1561 1560 1560 1559 1559 1559 1560 1560 1560 1561 1562 1563 1565 1566 1567 1569 1571 1573 1577 1579 1578 1576 1574
1504 1506 1510 1513 1515 1514 1512 1514 1519 1519 1508 1497 1495 1494 1493 1492 1492 1495 1502 1504 1501 1499 1499 1501 1506 1508 1510 1516 1519 1522 1526 1530 1534 1537 1538 1538 1538 1538 1540 1543 1545 1546 1548 1548 1549 1550 1551 1552 1553 1553 1553 1554 1555 1555 1556 1557 1558 1558 1558 1559 1560 1560 1561 1561 1561 1561 1562 1561 1560 1561 1560 1561 1562 1563 1564 1566 1567 1568 1569 1570 1571 1573 1575 1575 1573 1572
1503 1506 1508 1513 1517 1517 1519 1520 1516 1512 1508 1503 1499 1498 1499 1499 1497 1497 1504 1508 1505 1502 1501 1502 1508 1511 1513 1517 1521 1523 1527 1531 1536 1540 1540 1540 1541 1541 1542 1543 1545 1547 1548 1549 1551 1552 1553 1553 1554 1554 1555 1555 1556 1557 1557 1558 1559 1559 1559 1559 1560 1561 1561 1562 1562 1563 1564 1564 1564 1564 1564 1564 1564 1565 1566 1567 1568 1568 1569 1570 1570 1570 1572 1573 1572 1571
1504 1505 1507 1512 1519 1520 1521 1520 1517 1517 1516 1507 1501 1500 1500 1501 1499 1495 1501 1509 1508 1504 1503 1503 1506 1512 1514 1518 1522 1525 1527 1533 1539 1540 1540 1542 1543 1543 1544 1545 1546 1547 1549 1550 1551 1552 1554 1555 1555 1555 1556 1556 1557 1558 1559 1559 1559 1559 1559 1560 1561 1562 1563 1563 1563 1564 1565 1565 1566 1567 1567 1566 1566 1566 1567 1567 1568 1568 1568 1569 1569 1569 1570 1572 1572 1570
1506 1508 1507 1511 1518 1520 1520 1521 1523 1523 1515 1505 1501 1500 1498 1499 1497 1494 1505 1516 1511 1506 1507 1506 1507 1511 1512 1515 1520 1522 1526 1534 1539 1539 1539 1541 1543 1543 1544 1545 1547 1548 1549 1551 1552 1553 1554 1555 1556 1557 1557 1558 1558 1559 1560 1560 1560 1560 1560 1560 1561 1562 1563 1564 1565 1565 1566 1566 1567 1567 1568 1568 1568 1567 1567 1568 1568 1568 1568 1568 1569 1569 1570 1571 1570 1567
1510 1510 1511 1514 1520 1522 1521 1523 1524 1520 1511 1504 1501 1501 1499 1497 1494 1502 1518 1521 1509 1505 1509 1509 1509 1513 1515 1516 1519 1521 1524 1529 1532 1534 1538 1541 1542 1543 1544 1544 1546 1548 1549 1551 1553 1553 1554 1556 1557 1557 1558 1558 1559 1560 1561 1561 1561 1561 1561 1561 1562 1562 1563 1564 1565 1566 1566 1566 1567 1567 1567 1568 1568 1568 1568 1568 1568 1568 1568 1568 1568 1569 1569 1568 1566 1564
1516 1516 1518 1519 1520 1521 1521 1523 1523 1518 1510 1504 1502 1501 1499 1496 1500 1511 1517 1512 1504 1506 1510 1511 1512 1514 1517 1519 1521 1522 1525 1527 1529 1533 1537 1539 1541 1543 1544 1545 1546 1548 1549 1551 1552 1553 1555 1556 1557 1558 1558 1559 1560 1560 1561 1562 1562 1562 1562 1562 1562 1563 1563 1564 1564 1565 1566 1567 1567 1567 1567 1567 1568 1568 1568 1568 1568 1568 1568 1568 1568 1567 1566 1565 1564 1562
1519 1520 1522 1522 1521 1522 1522 1523 1524 1520 1510 1504 1503 1501 1498 1501 1507 1510 1506 1503 1504 1506 1508 1511 1514 1514 1516 1521 1523 1524 1526 1530 1535 1539 1539 1540 1541 1542 1543 1545 1546 1548 1550 1551 1552 1554 1555 1556 1557 1558 1558 1559 1560 1560 1561 1561 1562 1562 1562 1562 1563 1563 1563 1563 1564 1564 1565 1566 1567 1567 1567 1567 1568 1567 1567 1568 1567 1567 1567 1567 1566 1566 1564 1563 1562 1562
1518 1520 1524 1524 1523 1524 1524 1525 1527 1522 1512 1505 1504 1502 1501 1504 1506 1503 1501 1503 1505 1505 1507 1512 1514 1513 1516 1520 1525 1527 1526 1529 1538 1543 1543 1543 1542 1541 1543 1545 1546 1548 1550 1551 1552 1554 1555 1556 1557 1558 1558 1559 1559 1559 1560 1560 1561 1561 1561 1562 1562 1562 1562 1562 1563 1563 1564 1564 1565 1565 1566 1567 1567 1567 1567 1567 1566 1566 1566 1565 1565 1564 1563 1563 1562 1561
1516 1519 1523 1523 1521 1523 1525 1525 1522 1517 1510 1507 1506 1504 1504 1505 1504 1502 1502 1503 1504 1506 1508 1510 1511 1514 1515 1517 1521 1525 1527 1530 1535 1539 1541 1543 1542 1541 1543 1546 1547 1548 1550 1551 1552 1553 1555 1556 1557 1557 1558 1558 1558 1558 1559 1559 1560 1560 1560 1560 1560 1560 1560 1561 1561 1561 1562 1562 1563 1563 1563 1564 1565 1565 1565 1565 1564 1564 1564 1564 1563 1563 1562 1562 1561 1561
1516 1516 1517 1517 1517 1519 1521 1518 1514 1511 1510 1509 1507 1506 1506 1505 1505 1504 1503 1503 1505 1507 1508 1509 1511 1514 1515 1516 1518 1521 1526 1531 1534 1535 1537 1540 1541 1541 1543 1545 1547 1549 1550 1551 1552 1553 1554 1555 1556 1556 1557 1557 1557 1558 1558 1558 1559 1559 1559 1559 1558 1559 1559 1559 1559 1559 1560 1560 1560 1561 1561 1561 1562 1562 1562 1562 1562 1562 1561 1561 1561 1561 1561 1560 1559 1559
1516 1514 1514 1514 1515 1516 1516 1514 1513 1513 1512 1510 1509 1509 1508 1507 1507 1507 1505 1505 1507 1509 1509 1511 1512 1515 1518 1520 1520 1522 1525 1528 1530 1533 1536 1537 1539 1542 1543 1545 1547 1549 1550 1551 1552 1553 1554 1555 1555 1556 1556 1556 1557 1558 1558 1558 1558 1558 1557 1557 1557 1557 1557 1557 1558 1558 1558 1558 1558 1558 1559 1559 1559 1559 1560 1560 1560 1559 1560 1559 1559 1559 1559 1558 1558 1557
1515 1514 1514 1514 1515 1517 1517 1515 1515 1515 1514 1513 1512 1511 1511 1510 1510 1510 1509 1509 1509 1511 1512 1513 1514 1516 1520 1522 1524 1527 1530 1530 1529 1531 1533 1536 1539 1541 1543 1545 1547 1548 1549 1550 1551 1553 1554 1554 1555 1556 1556 1556 1557 1557 1557 1557 1556 1556 1556 1556 1556 1556 1556 1556 1556 1556 1556 1556 1556 1556 1556 1556 1557 1557 1557 1557 1557 1558 1558 1558 1558 1557 1557 1556 1556 1555
1516 1514 1515 1517 1517 1518 1518 1517 1516 1516 1516 1515 1514 1514 1514 1514 1514 1513 1512 1512 1512 1514 1515 1516 1517 1518 1520 1522 1526 1531 1536 1537 1536 1534 1534 1536 1539 1541 1543 1545 1546 1547 1549 1550 1550 1552 1553 1553 1554 1554 1555 1556 1556 1556 1556 1555 1554 1554 1555 1554 1555 1555 1555 1555 1555 1555 1555 1555 1554 1554 1554 1554 1555 1555 1555 1555 1556 1556 1556 1556 1556 1556 1555 1555 1554 1554
1516 1516 1517 1519 1519 1519 1519 1518 1517 1517 1517 1517 1516 1516 1516 1515 1515 1516 1515 1515 1516 1516 1517 1519 1520 1521 1522 1524 1526 1530 1534 1538 1538 1536 1535 1537 1539 1541 1543 1544 1545 1547 1548 1549 1550 1550 1551 1551 1552 1553 1553 1554 1554 1554 1554 1553 1553 1553 1553 1553 1553 1553 1553 1554 1553 1553 1553 1553 1553 1553 1553 1552 1553 1553 1553 1553 1554 1554 1554 1554 1554 1554 1554 1554 1553 1553
1518 1518 1519 1520 1521 1521 1521 1520 1519 1519 1520 1520 1519 1518 1518 1518 1517 1518 1518 1518 1518 1519 1520 1521 1522 1524 1525 1526 1527 1529 1532 1534 1535 1536 1536 1538 1539 1541 1542 1544 1545 1547 1547 1548 1549 1548 1548 1549 1550 1551 1552 1552 1552 1552 1552 1552 1552 1552 1552 1552 1552 1552 1552 1552 1552 1552 1552 1552 1551 1552 1551 1551 1551 1552 1552 1552 1552 1552 1553 1552 1552 1552 1552 1552 1552 1552
1519 1520 1520 1521 1522 1522 1521 1520 1520 1520 1521 1522 1521 1520 1520 1520 1519 1519 1520 1520 1521 1521 1521 1522 1523 1525 1526 1527 1528 1530 1531 1532 1534 1535 1536 1537 1539 1540 1541 1543 1544 1545 1545 1546 1546 1546 1547 1547 1548 1549 1550 1550 1550 1550 1551 1551 1551 1551 1551 1552 1551 1551 1551 1551 1551 1551 1551 1550 1550 1550 1550 1550 1550 1550 1550 1551 1551 1551 1551 1551 1551 1551 1551 1551 1551 1551